IGO5099 VOHS-VABB

Flight info

Callsign IGO5099
Flight time 1h 21m
Altitude 38000
Route TAMIV7 APUSU W18 OPAKA EMRAK2A
Aircraft A20N/M-SDE2E3FGHIRWXY/LB1

Departure

Time 2026-04-22 10:25
Airport Rajiv Gandhi International Airport (VOHS)

Arrival

Time 2026-04-22 11:46
Airport Chhatrapati Shivaji Maharaj International Airport (VABB)
Time Latitude Longitude Altitude Speed Heading
2026-04-22 09:49 17.23422 78.43286 1979 ft 0 kts
2026-04-22 10:13 17.23399 78.43288 1981 ft 4 kts 346°
2026-04-22 10:13 17.23375 78.43298 1980 ft 4 kts 314°
2026-04-22 10:14 17.23364 78.43319 1980 ft 3 kts 269°
2026-04-22 10:14 17.23364 78.43298 1979 ft 3 kts 269°
2026-04-22 10:14 17.23364 78.43294 1982 ft 0 kts 269°
2026-04-22 10:17 17.23364 78.43293 1982 ft 1 kts 269°
2026-04-22 10:18 17.23364 78.43276 1980 ft 4 kts 269°
2026-04-22 10:18 17.23363 78.43232 1981 ft 8 kts 269°
2026-04-22 10:18 17.23342 78.43174 1981 ft 10 kts 221°
2026-04-22 10:18 17.23272 78.43157 1982 ft 11 kts 196°
2026-04-22 10:19 17.23244 78.43087 1979 ft 12 kts 269°
2026-04-22 10:19 17.23242 78.42990 1979 ft 15 kts 269°
2026-04-22 10:19 17.23241 78.42875 1980 ft 17 kts 270°
2026-04-22 10:19 17.23239 78.42743 1982 ft 19 kts 268°
2026-04-22 10:20 17.23237 78.42596 1980 ft 21 kts 269°
2026-04-22 10:20 17.23234 78.42450 1980 ft 15 kts 269°
2026-04-22 10:20 17.23232 78.42354 1980 ft 13 kts 268°
2026-04-22 10:20 17.23218 78.42252 1981 ft 14 kts 223°
2026-04-22 10:21 17.23152 78.42242 1982 ft 10 kts 202°
2026-04-22 10:21 17.23085 78.42213 1981 ft 11 kts 226°
2026-04-22 10:21 17.23068 78.42135 1981 ft 12 kts 270°
2026-04-22 10:21 17.23071 78.42034 1980 ft 15 kts 266°
2026-04-22 10:22 17.23069 78.41909 1981 ft 19 kts 270°
2026-04-22 10:22 17.23068 78.41815 1981 ft 20 kts 268°
2026-04-22 10:22 17.23063 78.41607 1980 ft 23 kts 269°
2026-04-22 10:22 17.23060 78.41434 1979 ft 22 kts 270°
2026-04-22 10:23 17.23046 78.41346 1981 ft 17 kts 228°
2026-04-22 10:23 17.22905 78.41339 1982 ft 15 kts 167°
2026-04-22 10:23 17.22857 78.41409 1981 ft 11 kts 88°
2026-04-22 10:23 17.22857 78.41417 1983 ft 0 kts 88°
2026-04-22 10:24 17.22857 78.41426 1982 ft 14 kts 88°
2026-04-22 10:24 17.22864 78.41791 1981 ft 84 kts 89°
2026-04-22 10:24 17.22875 78.42606 1978 ft 138 kts 89°
2026-04-22 10:24 17.22891 78.43749 2151 ft 164 kts 89°
2026-04-22 10:25 17.22893 78.44935 2778 ft 166 kts 90°
2026-04-22 10:25 17.22861 78.46163 3345 ft 169 kts 92°
2026-04-22 10:25 17.22842 78.47837 3893 ft 187 kts 88°
2026-04-22 10:25 17.22870 78.48762 4109 ft 202 kts 88°
2026-04-22 10:26 17.22952 78.50385 4359 ft 235 kts 81°
2026-04-22 10:26 17.23519 78.52095 4641 ft 265 kts 57°
2026-04-22 10:26 17.24878 78.53512 5019 ft 287 kts 31°
2026-04-22 10:26 17.26744 78.54202 6001 ft 284 kts
2026-04-22 10:27 17.28676 78.54139 6951 ft 284 kts 348°
2026-04-22 10:27 17.30511 78.53338 7695 ft 293 kts 325°
2026-04-22 10:27 17.31917 78.51776 8464 ft 299 kts 301°
2026-04-22 10:27 17.32616 78.49733 9408 ft 300 kts 279°
2026-04-22 10:28 17.32818 78.47560 10347 ft 302 kts 274°
2026-04-22 10:28 17.32931 78.45292 10716 ft 325 kts 274°
2026-04-22 10:28 17.33095 78.42852 11016 ft 346 kts 276°
2026-04-22 10:28 17.33343 78.40333 11717 ft 351 kts 277°
2026-04-22 10:29 17.33647 78.37770 12533 ft 355 kts 278°
2026-04-22 10:29 17.33979 78.35193 13329 ft 359 kts 278°
2026-04-22 10:29 17.34325 78.32588 14062 ft 363 kts 278°
2026-04-22 10:29 17.34675 78.29968 14809 ft 365 kts 278°
2026-04-22 10:30 17.35028 78.27318 15534 ft 368 kts 278°
2026-04-22 10:30 17.35381 78.24659 16245 ft 371 kts 278°
2026-04-22 10:30 17.35736 78.21967 16920 ft 375 kts 278°
2026-04-22 10:30 17.36095 78.19251 17576 ft 379 kts 278°
2026-04-22 10:31 17.36456 78.16509 18212 ft 382 kts 277°
2026-04-22 10:31 17.36804 78.13858 18776 ft 385 kts 277°
2026-04-22 10:31 17.37174 78.11045 19411 ft 386 kts 277°
2026-04-22 10:31 17.37541 78.08256 19999 ft 389 kts 277°
2026-04-22 10:32 17.37910 78.05446 20613 ft 391 kts 277°
2026-04-22 10:32 17.38281 78.02617 21212 ft 393 kts 276°
2026-04-22 10:32 17.38653 77.99778 21810 ft 395 kts 276°
2026-04-22 10:32 17.39022 77.96955 22382 ft 398 kts 276°
2026-04-22 10:33 17.39402 77.94044 22973 ft 400 kts 276°
2026-04-22 10:33 17.39780 77.91144 23530 ft 403 kts 276°
2026-04-22 10:33 17.40159 77.88234 24015 ft 404 kts 276°
2026-04-22 10:33 17.40535 77.85350 24528 ft 406 kts 275°
2026-04-22 10:34 17.40916 77.82416 25003 ft 408 kts 275°
2026-04-22 10:34 17.41303 77.79435 25490 ft 410 kts 275°
2026-04-22 10:34 17.41686 77.76474 25960 ft 412 kts 275°
2026-04-22 10:34 17.42072 77.73493 26420 ft 413 kts 275°
2026-04-22 10:35 17.42454 77.70540 26847 ft 416 kts 274°
2026-04-22 10:35 17.42846 77.67502 27299 ft 417 kts 274°
2026-04-22 10:35 17.43234 77.64485 27731 ft 419 kts 274°
2026-04-22 10:35 17.43625 77.61446 28155 ft 421 kts 274°
2026-04-22 10:36 17.44017 77.58398 28582 ft 423 kts 274°
2026-04-22 10:36 17.44404 77.55383 28972 ft 425 kts 274°
2026-04-22 10:36 17.44803 77.52271 29368 ft 427 kts 274°
2026-04-22 10:36 17.45198 77.49185 29752 ft 429 kts 274°
2026-04-22 10:37 17.45596 77.46071 30147 ft 431 kts 274°
2026-04-22 10:37 17.46396 77.39809 30809 ft 436 kts 273°
2026-04-22 10:37 17.46797 77.36664 31187 ft 436 kts 273°
2026-04-22 10:38 17.47199 77.33523 31638 ft 435 kts 272°
2026-04-22 10:38 17.47600 77.30378 32059 ft 435 kts 272°
2026-04-22 10:38 17.48000 77.27242 32484 ft 434 kts 272°
2026-04-22 10:38 17.48397 77.24116 32910 ft 433 kts 271°
2026-04-22 10:39 17.48793 77.20997 33330 ft 431 kts 271°
2026-04-22 10:39 17.49181 77.17928 33712 ft 431 kts 271°
2026-04-22 10:39 17.49579 77.14782 34093 ft 429 kts 271°
2026-04-22 10:39 17.49969 77.11686 34461 ft 427 kts 270°
2026-04-22 10:40 17.50358 77.08605 34805 ft 426 kts 270°
2026-04-22 10:40 17.50737 77.05588 35142 ft 424 kts 270°
2026-04-22 10:40 17.51120 77.02539 35468 ft 423 kts 270°
2026-04-22 10:40 17.51503 76.99483 35796 ft 421 kts 270°
2026-04-22 10:41 17.51881 76.96465 36134 ft 419 kts 270°
2026-04-22 10:41 17.52262 76.93420 36464 ft 418 kts 270°
2026-04-22 10:41 17.52639 76.90406 36782 ft 416 kts 269°
2026-04-22 10:41 17.53013 76.87411 37076 ft 415 kts 269°
2026-04-22 10:42 17.53384 76.84429 37358 ft 414 kts 269°
2026-04-22 10:42 17.53758 76.81427 37644 ft 412 kts 269°
2026-04-22 10:42 17.54127 76.78457 37822 ft 411 kts 269°
2026-04-22 10:43 17.55475 76.72568 37847 ft 427 kts 283°
2026-04-22 10:43 17.56825 76.69758 37840 ft 439 kts 292°
2026-04-22 10:43 17.58642 76.67131 37834 ft 451 kts 301°
2026-04-22 10:43 17.60907 76.64784 37839 ft 465 kts 311°
2026-04-22 10:44 17.63583 76.62815 37837 ft 478 kts 321°
2026-04-22 10:44 17.69523 76.59585 37836 ft 482 kts 324°
2026-04-22 10:45 17.75483 76.56351 37833 ft 481 kts 323°
2026-04-22 10:45 17.81421 76.53114 37832 ft 480 kts 323°
2026-04-22 10:46 17.87349 76.49878 37830 ft 480 kts 323°
2026-04-22 10:46 17.93275 76.46641 37825 ft 480 kts 323°
2026-04-22 10:47 17.99199 76.43404 37829 ft 480 kts 323°
2026-04-22 10:47 18.05155 76.40213 37826 ft 481 kts 324°
2026-04-22 10:48 18.11140 76.37080 37828 ft 481 kts 324°
2026-04-22 10:48 18.17112 76.33939 37823 ft 481 kts 324°
2026-04-22 10:49 18.23099 76.30778 37836 ft 481 kts 324°
2026-04-22 10:49 18.29082 76.27616 37827 ft 481 kts 324°
2026-04-22 10:50 18.35066 76.24451 37829 ft 481 kts 324°
2026-04-22 10:50 18.41046 76.21286 37832 ft 481 kts 324°
2026-04-22 10:51 18.47032 76.18116 37835 ft 481 kts 324°
2026-04-22 10:51 18.53013 76.14945 37835 ft 481 kts 324°
2026-04-22 10:52 18.58959 76.11791 37835 ft 481 kts 324°
2026-04-22 10:52 18.64941 76.08615 37839 ft 481 kts 324°
2026-04-22 10:53 18.70960 76.05418 37836 ft 481 kts 324°
2026-04-22 10:53 18.76946 76.02235 37836 ft 481 kts 324°
2026-04-22 10:54 18.82883 75.99076 37834 ft 481 kts 323°
2026-04-22 10:54 18.88902 75.95871 37827 ft 481 kts 323°
2026-04-22 10:55 18.94825 75.92714 37832 ft 480 kts 323°
2026-04-22 10:55 19.00792 75.89532 37824 ft 480 kts 323°
2026-04-22 10:56 19.06735 75.86359 37824 ft 479 kts 323°
2026-04-22 10:56 19.12690 75.83177 37823 ft 479 kts 323°
2026-04-22 10:57 19.18631 75.80001 37818 ft 478 kts 323°
2026-04-22 10:57 19.24563 75.76826 37818 ft 477 kts 323°
2026-04-22 10:58 19.30480 75.73657 37815 ft 477 kts 323°
2026-04-22 10:58 19.36396 75.70486 37815 ft 476 kts 323°
2026-04-22 10:59 19.42234 75.67240 37809 ft 467 kts 316°
2026-04-22 10:59 19.44770 75.65181 37808 ft 452 kts 306°
2026-04-22 10:59 19.46880 75.62795 37805 ft 438 kts 297°
2026-04-22 10:59 19.48565 75.60162 37802 ft 425 kts 288°
2026-04-22 11:00 19.49813 75.57375 37804 ft 413 kts 280°
2026-04-22 11:00 19.51052 75.51603 37802 ft 395 kts 267°
2026-04-22 11:01 19.51623 75.45793 37805 ft 396 kts 267°
2026-04-22 11:01 19.52214 75.39988 37813 ft 397 kts 268°
2026-04-22 11:02 19.52801 75.34171 37818 ft 397 kts 268°
2026-04-22 11:02 19.53386 75.28341 37819 ft 398 kts 267°
2026-04-22 11:03 19.53970 75.22499 37799 ft 398 kts 267°
2026-04-22 11:03 19.54551 75.16673 37831 ft 398 kts 267°
2026-04-22 11:04 19.55129 75.10843 37497 ft 398 kts 268°
2026-04-22 11:04 19.55416 75.07915 36683 ft 403 kts 268°
2026-04-22 11:04 19.55705 75.04915 35562 ft 414 kts 269°
2026-04-22 11:04 19.56002 75.01852 34697 ft 419 kts 269°
2026-04-22 11:05 19.56305 74.98788 34117 ft 417 kts 270°
2026-04-22 11:05 19.56607 74.95762 33762 ft 409 kts 270°
2026-04-22 11:05 19.56903 74.92772 33036 ft 410 kts 270°
2026-04-22 11:05 19.57195 74.89743 32212 ft 415 kts 271°
2026-04-22 11:06 19.57490 74.86657 31721 ft 428 kts 272°
2026-04-22 11:06 19.57795 74.83476 31182 ft 439 kts 272°
2026-04-22 11:06 19.58109 74.80234 30395 ft 445 kts 273°
2026-04-22 11:06 19.58423 74.76996 29626 ft 447 kts 274°
2026-04-22 11:07 19.58742 74.73744 29106 ft 439 kts 274°
2026-04-22 11:07 19.59056 74.70533 28773 ft 427 kts 274°
2026-04-22 11:07 19.59359 74.67429 28271 ft 420 kts 274°
2026-04-22 11:07 19.59556 74.65398 27934 ft 416 kts 274°
2026-04-22 11:08 19.59943 74.61385 27258 ft 409 kts 274°
2026-04-22 11:08 19.60204 74.58405 26765 ft 403 kts 271°
2026-04-22 11:08 19.60180 74.55463 26280 ft 397 kts 265°
2026-04-22 11:08 19.59825 74.52569 25794 ft 393 kts 258°
2026-04-22 11:09 19.59410 74.50674 25466 ft 390 kts 254°
2026-04-22 11:09 19.58408 74.47042 24828 ft 386 kts 253°
2026-04-22 11:09 19.57899 74.45173 24585 ft 393 kts 254°
2026-04-22 11:09 19.57141 74.42373 24373 ft 395 kts 254°
2026-04-22 11:10 19.56382 74.39568 23872 ft 399 kts 254°
2026-04-22 11:10 19.55607 74.36714 22957 ft 408 kts 254°
2026-04-22 11:10 19.54832 74.33855 22245 ft 408 kts 254°
2026-04-22 11:10 19.54054 74.30996 21865 ft 398 kts 254°
2026-04-22 11:11 19.53293 74.28198 21417 ft 393 kts 254°
2026-04-22 11:11 19.52541 74.25435 20907 ft 387 kts 254°
2026-04-22 11:11 19.51807 74.22740 20419 ft 374 kts 254°
2026-04-22 11:11 19.51095 74.20130 19930 ft 365 kts 254°
2026-04-22 11:12 19.50392 74.17551 19460 ft 363 kts 254°
2026-04-22 11:12 19.49693 74.14992 19000 ft 360 kts 254°
2026-04-22 11:12 19.48999 74.12450 18481 ft 359 kts 254°
2026-04-22 11:12 19.48308 74.09922 18012 ft 356 kts 254°
2026-04-22 11:13 19.47621 74.07410 17545 ft 352 kts 254°
2026-04-22 11:13 19.46956 74.04984 17110 ft 348 kts 254°
2026-04-22 11:13 19.46282 74.02524 16648 ft 353 kts 254°
2026-04-22 11:13 19.45575 73.99938 16167 ft 374 kts 254°
2026-04-22 11:14 19.44843 73.97269 15738 ft 379 kts 254°
2026-04-22 11:14 19.44115 73.94621 15626 ft 368 kts 254°
2026-04-22 11:14 19.43411 73.92060 15504 ft 355 kts 254°
2026-04-22 11:14 19.42735 73.89601 15379 ft 341 kts 254°
2026-04-22 11:15 19.42021 73.87259 15254 ft 328 kts 248°
2026-04-22 11:15 19.41044 73.85116 14977 ft 321 kts 241°
2026-04-22 11:15 19.39970 73.83056 14580 ft 319 kts 241°
2026-04-22 11:15 19.38903 73.80997 14170 ft 318 kts 242°
2026-04-22 11:16 19.37846 73.78946 13787 ft 316 kts 242°
2026-04-22 11:16 19.36799 73.76910 13362 ft 315 kts 242°
2026-04-22 11:16 19.35752 73.74876 12920 ft 314 kts 242°
2026-04-22 11:16 19.34713 73.72857 12502 ft 311 kts 241°
2026-04-22 11:17 19.33681 73.70852 12152 ft 308 kts 241°
2026-04-22 11:17 19.32662 73.68875 11805 ft 304 kts 241°
2026-04-22 11:17 19.31655 73.66921 11453 ft 301 kts 241°
2026-04-22 11:17 19.30658 73.64987 11106 ft 298 kts 241°
2026-04-22 11:18 19.29667 73.63067 10756 ft 296 kts 241°
2026-04-22 11:18 19.28685 73.61162 10412 ft 294 kts 241°
2026-04-22 11:18 19.27710 73.59273 10076 ft 291 kts 240°
2026-04-22 11:18 19.26742 73.57398 9733 ft 290 kts 240°
2026-04-22 11:19 19.25776 73.55528 9372 ft 288 kts 240°
2026-04-22 11:19 19.24822 73.53686 9039 ft 284 kts 240°
2026-04-22 11:19 19.23877 73.51860 8706 ft 281 kts 241°
2026-04-22 11:19 19.22943 73.50058 8375 ft 278 kts 241°
2026-04-22 11:20 19.22030 73.48293 8269 ft 267 kts 241°
2026-04-22 11:20 19.21275 73.46552 8159 ft 255 kts 251°
2026-04-22 11:20 19.20737 73.44799 7984 ft 248 kts 246°
2026-04-22 11:20 19.19675 73.43316 7763 ft 268 kts 217°
2026-04-22 11:21 19.17991 73.42480 7531 ft 269 kts 190°
2026-04-22 11:21 19.16147 73.42379 7303 ft 265 kts 180°
2026-04-22 11:21 19.14319 73.42380 7072 ft 267 kts 180°
2026-04-22 11:21 19.12448 73.42387 6836 ft 265 kts 180°
2026-04-22 11:22 19.10633 73.42324 6604 ft 267 kts 192°
2026-04-22 11:22 19.08849 73.41493 6371 ft 286 kts 218°
2026-04-22 11:22 19.07594 73.39905 6216 ft 281 kts 245°
2026-04-22 11:22 19.07143 73.37913 6102 ft 280 kts 270°
2026-04-22 11:23 19.07311 73.35865 5980 ft 280 kts 279°
2026-04-22 11:23 19.07615 73.33834 5861 ft 280 kts 279°
2026-04-22 11:23 19.07873 73.31798 5735 ft 280 kts 277°
2026-04-22 11:23 19.08059 73.29747 5611 ft 279 kts 275°
2026-04-22 11:24 19.08191 73.27725 5367 ft 281 kts 274°
2026-04-22 11:24 19.08299 73.25630 4993 ft 282 kts 273°
2026-04-22 11:24 19.08393 73.23561 4618 ft 281 kts 273°
2026-04-22 11:24 19.08482 73.21531 4242 ft 281 kts 273°
2026-04-22 11:25 19.08574 73.19446 3901 ft 278 kts 273°
2026-04-22 11:25 19.08663 73.17444 3797 ft 265 kts 274°
2026-04-22 11:25 19.08730 73.15941 3800 ft 262 kts 274°
2026-04-22 11:25 19.08813 73.14095 3797 ft 242 kts 274°
2026-04-22 11:26 19.08891 73.12341 3809 ft 239 kts 274°
2026-04-22 11:26 19.08971 73.10603 3787 ft 230 kts 274°
2026-04-22 11:26 19.09044 73.08964 3805 ft 220 kts 274°
2026-04-22 11:26 19.09114 73.07347 3782 ft 224 kts 273°
2026-04-22 11:27 19.09129 73.05700 3748 ft 217 kts 270°
2026-04-22 11:27 19.09110 73.04149 3705 ft 203 kts 271°
2026-04-22 11:27 19.09093 73.02725 3632 ft 186 kts 271°
2026-04-22 11:27 19.09073 73.01410 3532 ft 172 kts 271°
2026-04-22 11:28 19.09056 73.00189 3360 ft 163 kts 271°
2026-04-22 11:28 19.09040 72.99012 3052 ft 160 kts 271°
2026-04-22 11:28 19.09024 72.97877 2916 ft 147 kts 271°
2026-04-22 11:28 19.09010 72.96760 2909 ft 159 kts 272°
2026-04-22 11:29 19.08993 72.95579 2790 ft 160 kts 271°
2026-04-22 11:29 19.08977 72.94403 2462 ft 158 kts 272°
2026-04-22 11:29 19.08962 72.93263 2126 ft 153 kts 273°
2026-04-22 11:29 19.08945 72.92141 1804 ft 152 kts 272°
2026-04-22 11:30 19.08930 72.91012 1473 ft 168 kts 271°
2026-04-22 11:30 19.08910 72.89633 1451 ft 199 kts 271°
2026-04-22 11:30 19.08890 72.88182 2160 ft 195 kts 271°
2026-04-22 11:30 19.08865 72.86686 2654 ft 215 kts 273°
2026-04-22 11:31 19.09103 72.85165 2834 ft 201 kts 292°
2026-04-22 11:31 19.09768 72.83951 2901 ft 188 kts 314°
2026-04-22 11:31 19.10799 72.83115 2901 ft 186 kts 335°
2026-04-22 11:31 19.11966 72.82549 2900 ft 186 kts 327°
2026-04-22 11:32 19.12903 72.81578 2884 ft 197 kts 304°
2026-04-22 11:32 19.13441 72.80204 3523 ft 204 kts 283°
2026-04-22 11:32 19.13494 72.78712 4322 ft 215 kts 265°
2026-04-22 11:32 19.13037 72.77123 4020 ft 234 kts 240°
2026-04-22 11:33 19.11906 72.75910 3855 ft 229 kts 213°
2026-04-22 11:33 19.10463 72.75238 3804 ft 234 kts 194°
2026-04-22 11:33 19.08727 72.74987 3799 ft 261 kts 190°
2026-04-22 11:33 19.06999 72.74436 3801 ft 258 kts 206°
2026-04-22 11:34 19.05292 72.73872 3802 ft 260 kts 184°
2026-04-22 11:34 19.03525 72.74197 3800 ft 261 kts 154°
2026-04-22 11:34 19.02124 72.75381 3804 ft 259 kts 124°
2026-04-22 11:34 19.01450 72.77101 3799 ft 254 kts 95°
2026-04-22 11:35 19.01661 72.78924 3801 ft 253 kts 66°
2026-04-22 11:35 19.02652 72.80436 3814 ft 250 kts 46°
2026-04-22 11:35 19.03825 72.81788 3799 ft 250 kts 45°
2026-04-22 11:35 19.05001 72.83141 3801 ft 249 kts 46°
2026-04-22 11:36 19.06169 72.84495 3803 ft 250 kts 46°
2026-04-22 11:36 19.07334 72.85854 3807 ft 249 kts 46°
2026-04-22 11:36 19.08422 72.87282 3809 ft 251 kts 58°
2026-04-22 11:36 19.09322 72.88863 3806 ft 250 kts 50°
2026-04-22 11:37 19.10216 72.90432 3809 ft 252 kts 70°
2026-04-22 11:37 19.10605 72.92240 3807 ft 248 kts 79°
2026-04-22 11:37 19.10841 72.93987 3800 ft 232 kts 80°
2026-04-22 11:37 19.11081 72.95609 3800 ft 216 kts 78°
2026-04-22 11:38 19.11357 72.97129 3674 ft 207 kts 76°
2026-04-22 11:38 19.11670 72.98620 3563 ft 212 kts 75°
2026-04-22 11:38 19.12360 73.01619 3263 ft 208 kts 73°
2026-04-22 11:39 19.12713 73.03110 3006 ft 207 kts 73°
2026-04-22 11:39 19.13060 73.04571 2916 ft 208 kts 72°
2026-04-22 11:39 19.13403 73.06028 2905 ft 196 kts 73°
2026-04-22 11:39 19.13712 73.07350 2908 ft 186 kts 73°
2026-04-22 11:40 19.13974 73.08724 2898 ft 192 kts 88°
2026-04-22 11:40 19.13558 73.10062 2896 ft 196 kts 127°
2026-04-22 11:40 19.12456 73.10835 2906 ft 193 kts 168°
2026-04-22 11:40 19.11151 73.10713 2903 ft 189 kts 209°
2026-04-22 11:41 19.10142 73.09867 2905 ft 187 kts 235°
2026-04-22 11:41 19.09533 73.08696 2900 ft 179 kts 254°
2026-04-22 11:41 19.09247 73.07411 2904 ft 179 kts 266°
2026-04-22 11:41 19.09151 73.06123 2903 ft 181 kts 271°
2026-04-22 11:42 19.09123 73.04778 2901 ft 179 kts 272°
2026-04-22 11:42 19.09105 73.03459 2798 ft 180 kts 272°
2026-04-22 11:42 19.09085 73.02124 2588 ft 181 kts 272°
2026-04-22 11:42 19.09064 73.00847 2355 ft 166 kts 274°
2026-04-22 11:43 19.09048 72.99676 2155 ft 154 kts 273°
2026-04-22 11:43 19.09034 72.98531 1970 ft 157 kts 273°
2026-04-22 11:43 19.09018 72.97389 1771 ft 152 kts 274°
2026-04-22 11:43 19.09002 72.96313 1575 ft 141 kts 273°
2026-04-22 11:44 19.08989 72.95287 1397 ft 138 kts 272°
2026-04-22 11:44 19.08975 72.94267 1222 ft 139 kts 273°
2026-04-22 11:44 19.08961 72.93243 1049 ft 138 kts 273°
2026-04-22 11:44 19.08948 72.92246 892 ft 138 kts 272°
2026-04-22 11:45 19.08934 72.91218 723 ft 136 kts 270°
2026-04-22 11:45 19.08919 72.90227 545 ft 132 kts 269°
2026-04-22 11:45 19.08917 72.89268 384 ft 132 kts 268°
2026-04-22 11:45 19.08893 72.88283 220 ft 135 kts 269°
2026-04-22 11:46 19.08876 72.87314 47 ft 130 kts 270°
2026-04-22 11:46 19.08870 72.86540 30 ft 65 kts 268°
2026-04-22 11:46 19.08864 72.86163 28 ft 44 kts 268°
2026-04-22 11:46 19.08903 72.85926 29 ft 31 kts 295°
2026-04-22 11:47 19.08955 72.85832 31 ft 0 kts 300°
2026-04-22 11:48 19.08963 72.85817 31 ft 4 kts 301°
2026-04-22 11:49 19.08984 72.85781 31 ft 7 kts 301°
2026-04-22 11:49 19.09014 72.85727 32 ft 10 kts 301°
2026-04-22 11:49 19.09034 72.85650 32 ft 12 kts 274°
2026-04-22 11:49 19.09056 72.85604 32 ft 4 kts 346°
2026-04-22 11:50 19.09089 72.85588 32 ft 7 kts 322°
2026-04-22 11:50 19.09099 72.85542 33 ft 8 kts 270°
2026-04-22 11:50 19.09104 72.85491 31 ft 5 kts 312°
2026-04-22 11:50 19.09125 72.85487 33 ft 1 kts 358°
2026-04-22 11:51 19.09148 72.85486 31 ft 5 kts 357°
2026-04-22 11:51 19.09156 72.85486 33 ft 0 kts 358°
2026-04-22 11:51 19.09158 72.85486 33 ft 0 kts 358°
2026-04-22 11:51 19.09159 72.85486 33 ft 0 kts 358°